Location: Campillo
(40.8621°N, 4.2488°W)
Time: 11:19:52
(UTC+00:00)

USA 306 - Pass Details

Date: 26 September 2021
Orbit: 564 x 573 km, 54.0° (Epoch: 24 September)

Event Time Altitude Azimuth Distance (km) Brightness Sun altitude
Rises 19:16:05 0° 312° (NW) 2,761 7.4 -13.8°
Reaches altitude 10° 19:19:00 10° 333° (NNW) 1,864 6.0 -14.3°
Maximum altitude 19:21:50 17° 15° (NNE) 1,459 4.9 -14.9°
Enters shadow 19:23:53 13° 48° (NE) 1,685 4.9 -15.3°
